Location: Mahannah Oil Field
(37.4664°N, 96.6003°W)
Time: 16:23:50
(UTC+00:00)

Vanguard 2 Rocket - Pass Details

Date: 25 June 2021
Orbit: 554 x 3325 km, 32.9° (Epoch: 24 July)

Event Time Altitude Azimuth Distance (km) Brightness Sun altitude
Rises 03:42:52 0° 274° (W) 7,314 12.2 -17.7°
Reaches altitude 10° 03:47:56 10° 273° (W) 6,256 11.7 -18.3°
Maximum altitude 04:07:17 69° 195° (SSW) 2,772 9.1 -20.6°
Enters shadow 04:16:32 24° 119° (ESE) 3,524 9.4 -21.6°
